Hourly Weather Panabá

Today, 1 October, Thursday

Time Temperature Precipitation Wind Pressure Humidity
00:00 +27°C° 0 mm 1 mps 758 mmHg 90%
01:00 +27°C° 0.2 mm 2 mps 758 mmHg 90%
02:00 +26°C° 0.2 mm 2 mps 757 mmHg 90%
03:00 +26°C° 0.2 mm 2 mps 757 mmHg 90%
04:00 +26°C° 0.3 mm 2 mps 757 mmHg 90%
05:00 +26°C° 0.3 mm 2 mps 757 mmHg 91%
06:00 +26°C° 0.3 mm 2 mps 757 mmHg 91%
07:00 +28°C° 0.3 mm 3 mps 758 mmHg 86%
08:00 +29°C° 0.3 mm 4 mps 758 mmHg 82%
09:00 +30°C° 0.3 mm 4 mps 759 mmHg 77%
10:00 +30°C° 1.2 mm 5 mps 758 mmHg 77%
11:00 +30°C° 1.2 mm 5 mps 758 mmHg 78%
12:00 +30°C° 1.2 mm 5 mps 758 mmHg 79%
13:00 +30°C° 0.6 mm 5 mps 757 mmHg 78%
14:00 +30°C° 0.6 mm 5 mps 757 mmHg 78%
15:00 +30°C° 0.6 mm 5 mps 756 mmHg 77%
16:00 +30°C° 0.2 mm 4 mps 756 mmHg 80%
17:00 +29°C° 0.2 mm 4 mps 756 mmHg 82%
18:00 +28°C° 0.2 mm 3 mps 757 mmHg 85%
19:00 +28°C° 0.7 mm 3 mps 757 mmHg 86%
20:00 +28°C° 0.7 mm 3 mps 758 mmHg 87%
21:00 +27°C° 0.7 mm 3 mps 758 mmHg 88%
22:00 +27°C° 1 mm 3 mps 758 mmHg 89%
23:00 +27°C° 1 mm 3 mps 757 mmHg 90%

Tomorrow, 2 October, Friday

Time Temperature Precipitation Wind Pressure Humidity
00:00 +27°C° 1 mm 3 mps 757 mmHg 92%
01:00 +27°C° 0.2 mm 3 mps 756 mmHg 91%
02:00 +27°C° 0.2 mm 3 mps 756 mmHg 91%
03:00 +27°C° 0.2 mm 4 mps 756 mmHg 91%
04:00 +27°C° 0.2 mm 4 mps 756 mmHg 91%
05:00 +27°C° 0.2 mm 3 mps 756 mmHg 91%
06:00 +27°C° 0.2 mm 3 mps 756 mmHg 90%
07:00 +28°C° 0.5 mm 4 mps 756 mmHg 86%
08:00 +29°C° 0.5 mm 5 mps 756 mmHg 82%
09:00 +30°C° 0.5 mm 6 mps 757 mmHg 78%
10:00 +30°C° 0.8 mm 6 mps 756 mmHg 78%
11:00 +32°C° 0.8 mm 6 mps 756 mmHg 78%
12:00 +32°C° 0.8 mm 7 mps 755 mmHg 77%
13:00 +30°C° 2.3 mm 7 mps 755 mmHg 81%
14:00 +29°C° 2.3 mm 7 mps 754 mmHg 85%
15:00 +29°C° 2.3 mm 7 mps 754 mmHg 89%
16:00 +28°C° 0.5 mm 6 mps 754 mmHg 90%
17:00 +27°C° 0.5 mm 6 mps 754 mmHg 90%
18:00 +27°C° 0.5 mm 5 mps 754 mmHg 91%
19:00 +27°C° 0.5 mm 5 mps 754 mmHg 91%
20:00 +27°C° 0.5 mm 6 mps 755 mmHg 92%
21:00 +27°C° 0.5 mm 6 mps 755 mmHg 92%
22:00 +26°C° 1.2 mm 6 mps 755 mmHg 93%
23:00 +26°C° 1.2 mm 7 mps 754 mmHg 93%

Day after tomorrow, 3 October, Saturday

Time Temperature Precipitation Wind Pressure Humidity
00:00 +26°C° 1.2 mm 7 mps 754 mmHg 93%
01:00 +26°C° 1.3 mm 7 mps 753 mmHg 94%
02:00 +26°C° 1.3 mm 6 mps 753 mmHg 95%
03:00 +26°C° 1.3 mm 6 mps 753 mmHg 95%
04:00 +26°C° 0.8 mm 6 mps 753 mmHg 95%
05:00 +26°C° 0.8 mm 6 mps 753 mmHg 95%
06:00 +26°C° 0.8 mm 6 mps 753 mmHg 94%
07:00 +26°C° 0.6 mm 6 mps 753 mmHg 93%
08:00 +27°C° 0.6 mm 7 mps 753 mmHg 91%
09:00 +27°C° 0.6 mm 7 mps 754 mmHg 90%
10:00 +28°C° 0.5 mm 8 mps 754 mmHg 87%
11:00 +28°C° 0.5 mm 9 mps 753 mmHg 84%
12:00 +29°C° 0.5 mm 9 mps 753 mmHg 82%
13:00 +29°C° 0.3 mm 9 mps 752 mmHg 80%
14:00 +31°C° 0.3 mm 10 mps 752 mmHg 79%
15:00 +31°C° 0.3 mm 10 mps 751 mmHg 77%
16:00 +29°C° 0.2 mm 8 mps 752 mmHg 80%
17:00 +28°C° 0.2 mm 7 mps 752 mmHg 84%
18:00 +27°C° 0.2 mm 6 mps 752 mmHg 87%
19:00 +27°C° 0.1 mm 6 mps 752 mmHg 88%
20:00 +27°C° 0.1 mm 6 mps 753 mmHg 89%
21:00 +27°C° 0.1 mm 5 mps 753 mmHg 90%
22:00 +27°C° 0.2 mm 5 mps 753 mmHg 91%
23:00 +27°C° 0.2 mm 5 mps 753 mmHg 91%

4 October, Sunday

Time Temperature Precipitation Wind Pressure Humidity
00:00 +27°C° 0.2 mm 4 mps 753 mmHg 92%
01:00 +27°C° 0.1 mm 4 mps 753 mmHg 92%
02:00 +27°C° 0.1 mm 4 mps 753 mmHg 93%
03:00 +27°C° 0.1 mm 4 mps 752 mmHg 93%
04:00 +27°C° 0.2 mm 4 mps 752 mmHg 93%
05:00 +27°C° 0.2 mm 4 mps 753 mmHg 93%
06:00 +27°C° 0.2 mm 4 mps 753 mmHg 94%
07:00 +28°C° 0.5 mm 4 mps 753 mmHg 91%
08:00 +29°C° 0.5 mm 5 mps 754 mmHg 89%
09:00 +30°C° 0.5 mm 5 mps 754 mmHg 87%
10:00 +30°C° 1.9 mm 5 mps 754 mmHg 86%
11:00 +30°C° 1.9 mm 5 mps 754 mmHg 86%
12:00 +32°C° 1.9 mm 5 mps 754 mmHg 86%
13:00 +30°C° 2.5 mm 5 mps 753 mmHg 86%
14:00 +30°C° 2.5 mm 5 mps 753 mmHg 87%
15:00 +30°C° 2.5 mm 5 mps 753 mmHg 87%
16:00 +29°C° 1.4 mm 5 mps 753 mmHg 89%
17:00 +28°C° 1.4 mm 4 mps 754 mmHg 91%
18:00 +27°C° 1.4 mm 4 mps 754 mmHg 93%
19:00 +27°C° 0.1 mm 3 mps 754 mmHg 94%
20:00 +27°C° 0.1 mm 3 mps 755 mmHg 94%
21:00 +27°C° 0.1 mm 3 mps 755 mmHg 95%
22:00 +27°C° 0.1 mm 3 mps 755 mmHg 95%
23:00 +27°C° 0.1 mm 3 mps 755 mmHg 96%

5 October, Monday

Time Temperature Precipitation Wind Pressure Humidity
00:00 +26°C° 0.1 mm 3 mps 754 mmHg 96%
01:00 +26°C° 0.1 mm 3 mps 754 mmHg 96%
02:00 +26°C° 0.1 mm 3 mps 754 mmHg 96%
03:00 +26°C° 0.1 mm 3 mps 754 mmHg 96%
04:00 +26°C° 0.1 mm 3 mps 754 mmHg 96%
05:00 +26°C° 0.1 mm 3 mps 754 mmHg 97%
06:00 +26°C° 0.1 mm 3 mps 755 mmHg 97%
07:00 +27°C° 0.1 mm 3 mps 755 mmHg 92%
08:00 +29°C° 0.1 mm 3 mps 755 mmHg 88%
09:00 +30°C° 0.1 mm 3 mps 755 mmHg 84%
10:00 +31°C° 1.8 mm 3 mps 755 mmHg 83%
11:00 +31°C° 1.8 mm 3 mps 755 mmHg 81%
12:00 +33°C° 1.8 mm 3 mps 754 mmHg 80%
13:00 +31°C° 1 mm 3 mps 754 mmHg 81%
14:00 +31°C° 1 mm 3 mps 754 mmHg 82%
15:00 +31°C° 1 mm 3 mps 753 mmHg 83%
16:00 +30°C° 1.5 mm 3 mps 754 mmHg 85%
17:00 +29°C° 1.5 mm 3 mps 754 mmHg 88%
18:00 +28°C° 1.5 mm 3 mps 754 mmHg 90%
19:00 +28°C° 1.3 mm 2 mps 755 mmHg 92%
20:00 +28°C° 1.3 mm 2 mps 755 mmHg 93%
21:00 +27°C° 1.3 mm 1 mps 755 mmHg 94%
22:00 +27°C° 0.1 mm 2 mps 755 mmHg 95%
23:00 +27°C° 0.1 mm 2 mps 755 mmHg 95%

6 October, Tuesday

Time Temperature Precipitation Wind Pressure Humidity
00:00 +27°C° 0.1 mm 2 mps 755 mmHg 96%
01:00 +27°C° 0 mm 2 mps 755 mmHg 96%
02:00 +26°C° 0 mm 2 mps 755 mmHg 97%
03:00 +26°C° 0 mm 2 mps 754 mmHg 97%
04:00 +26°C° 0.5 mm 2 mps 755 mmHg 97%
05:00 +26°C° 0.5 mm 2 mps 755 mmHg 97%
06:00 +26°C° 0.5 mm 2 mps 755 mmHg 97%
07:00 +27°C° 0.4 mm 2 mps 756 mmHg 93%
08:00 +29°C° 0.4 mm 2 mps 756 mmHg 89%
09:00 +30°C° 0.4 mm 2 mps 756 mmHg 85%
10:00 +31°C° 2.2 mm 1 mps 756 mmHg 81%
11:00 +32°C° 2.2 mm 1 mps 756 mmHg 78%
12:00 +33°C° 2.2 mm 1 mps 756 mmHg 74%
13:00 +32°C° 3.9 mm 1 mps 755 mmHg 77%
14:00 +31°C° 3.9 mm 1 mps 755 mmHg 81%
15:00 +30°C° 3.9 mm 2 mps 754 mmHg 84%
16:00 +29°C° 1.5 mm 2 mps 755 mmHg 87%
17:00 +28°C° 1.5 mm 2 mps 755 mmHg 91%
18:00 +27°C° 1.5 mm 2 mps 755 mmHg 94%
19:00 +26°C° 0.5 mm 2 mps 756 mmHg 94%
20:00 +26°C° 0.5 mm 2 mps 756 mmHg 94%
21:00 +26°C° 0.5 mm 1 mps 757 mmHg 94%
22:00 +26°C° 0.1 mm 1 mps 757 mmHg 93%
23:00 +25°C° 0.1 mm 1 mps 757 mmHg 93%
Show more

We Need Your Consent

Meteoprog and our Service Providers may store and access personal data such as cookies, device identifiers or other similar technologies on your device and process such data to personalise content and ads, as well as provide social media features and to analyse the traffic.

  • Store and/or access information on your device

    Cookies, device identifiers or other information can be stored or accessed on your device for the purposes indicated above.

  • Personalised ads and content, ad and content measurement, audience insights, and products development

    Ads and content can be personalised based on a profile. More data can be added to better personalise ads and content. Ad and content performance can be measured. Insights about the audience who saw the ads and content can be derived. Such data can be used to develop or improve user’s experience, systems and software.

By clicking ‘I Agree’ you will allow the use of indicated cookies, device identifiers, web beacons or other similar technologies. Your settings can be changed in the browser on your device.

For certain purposes, legitimate interests may be relied on, rather than consent. You can read more about this in our Privacy and Cookie Policy.